Hourly Data Report for October 10, 2016

All times are specified in Local Standard Time (LST). Add 1 hour to adjust for Daylight Saving Time where and when it is observed.

CHARLOTTETOWN A
PRINCE EDWARD ISLAND

46°17'21.000" N
63°07'09.000" W
48.50 m
8300301
71706
YYG

Download Data

Hourly Data (October 2016)
Hourly Data Report for October 10, 2016
Temp Definition
°C
Dew Point Temp Definition
°C
Rel Hum Definition
%
Wind Dir Definition
10's deg

Wind Spd Definition
km/h
Visibility Definition
km
Stn Press Definition
kPa
Hmdx Definition


Wind Chill Definition


Weather Definition


TIME
00:00 Legend Double Dagger 9.6 8.7 94 5 22 3.2 101.04     Moderate Rain,Fog
01:00 Legend Double Dagger 9.2 8.5 95 4 30 8.1 100.85     Moderate Rain,Fog
02:00 Legend Double Dagger 9.3 8.4 94 4 30 12.9 100.70     Rain
03:00 Legend Double Dagger 8.9 8.0 94 2 29 8.1 100.50     Moderate Rain,Fog
04:00 Legend Double Dagger 9.0 7.9 93 3 43 6.4 100.45     Heavy Rain Showers,Fog
05:00 Legend Double Dagger 9.2 8.5 95 2 39 6.4 100.33     Moderate Rain,Fog
06:00 Legend Double Dagger 9.1 8.2 94 2 35 6.4 100.28     Moderate Rain,Fog
07:00 Legend Double Dagger 9.6 8.7 94 1 35 6.4 100.22     Moderate Rain,Fog
08:00 Legend Double Dagger 9.6 8.5 93 1 33 6.4 100.19     Moderate Rain,Fog
09:00 Legend Double Dagger 9.6 8.7 94 1 43 4.8 100.13     Moderate Rain,Fog
10:00 Legend Double Dagger 9.0 7.9 93 2 56 4.8 100.05     Moderate Rain,Fog
11:00 Legend Double Dagger 9.4 8.5 94 2 47 4.8 100.02     Moderate Rain,Fog
12:00 Legend Double Dagger 9.6 8.5 93 1 45 4.8 99.85     Heavy Rain,Fog
13:00 Legend Double Dagger 9.8 8.7 93 2 61 6.4 99.72     Rain,Fog
14:00 Legend Double Dagger 9.5 8.3 92 1 60 4.8 99.75     Moderate Rain,Fog
15:00 Legend Double Dagger 9.4 8.3 93 1 52 4.8 99.85     Moderate Rain,Fog
16:00 Legend Double Dagger 8.9 7.8 93 36 40 4.8 99.96     Heavy Rain,Fog
17:00 Legend Double Dagger 8.5 7.4 93 36 45 4.8 99.99     Moderate Rain,Fog
18:00 Legend Double Dagger 8.0 6.8 92 36 51 4.8 100.09     Moderate Rain,Fog
19:00 Legend Double Dagger 7.8 6.1 89 36 55 8.1 100.26     Rain,Fog
20:00 Legend Double Dagger 7.4 6.0 91 35 41 8.1 100.40     Rain,Fog
21:00 Legend Double Dagger 7.2 5.7 90 35 46 9.7 100.54     Rain,Fog
22:00 Legend Double Dagger 7.4 4.9 84 35 46 9.7 100.72     Rain,Fog
23:00 Legend Double Dagger 7.7 4.1 78 35 32 16.1 100.84     Drizzle

Notes on Data Quality.

Legend

  • E = Estimated
  • M = Missing
  • NA = Not Available
  • ‡ = Partner data that is not subject to review by the National Climate Archives
Date modified: